Regional Weather Roundup
Issued by NWS Sterling, VA

Home | Current Version | Previous Version | Text Only | Print | Product List | Glossary Off
Versions: 1 2 3 4 5 6 7 8 9 10 11 12 13 14 15 16 17 18 19 20 21 22 23 24 25 26 27 28 29 30 31 32 33 34 35 36 37 38 39 40 41 42 43 44 45 46 47 48 49 50

000
ASUS41 KLWX 261310
RWRLWX

REGIONAL WEATHER ROUNDUP
NATIONAL WEATHER SERVICE BALTIMORE MD/WASHINGTON DC
900 AM EDT SUN APR 26 2015

Note: "FAIR" indicates few or no clouds below 12,000 feet
with no significant weather and/or obstructions to visibility.
 TC=TEMPERATURE CELSIUS

 * =Non NWS site. Station does not report precipitation (e.g. rain,
    snow, etc.), thunder, or fog.

DCZ001-MDZ009-015-VAZ040>042-051-053>054-261400-
WASHINGTON METRO

CITY           SKY/WX    TMP DP  RH WIND       PRES   REMARKS
WASHINGTON NAT PTSUNNY   50  39  66 N8        29.71R
DULLES         PTSUNNY   46  37  71 N9        29.72R
ANDREWS AFB    PTSUNNY   47  38  72 N7        29.69R
FT BELVOIR     PTSUNNY   47  38  70 VRB6      29.71R
QUANTICO       CLOUDY    48  42  80 NW6       29.72R
COLLEGE PARK*  PTSUNNY   46  37  71 N5        29.70R
LEESBURG*      MOSUNNY   48  37  66 N9G16     29.73R
MANASSAS*      PTSUNNY   46  41  81 N7        29.72R
GAITHERSBURG*  SUNNY     46  37  71 CALM      29.74R

$$

MDZ006>007-011-014-261400-
BALTIMORE METRO

CITY           SKY/WX    TMP DP  RH WIND       PRES   REMARKS
BWI AIRPORT    MOSUNNY   51  35  54 NE7       29.69R
MD SCIENCE CTR   N/A     52  30  43 MISG      29.70R
MARTIN STATE   MOSUNNY   54  34  47 N12       29.71R
ANNAPOLIS      PTSUNNY   49  38  65 N7        29.69R
FORT MEADE*    MOSUNNY   46  37  71 N3        29.71R

$$

MDZ012-015-019>023-261400-
MARYLAND EASTERN SHORE

CITY           SKY/WX    TMP DP  RH WIND       PRES   REMARKS
OCEAN CITY     CLOUDY    44  40  85 NW5       29.67S
SALISBURY      CLOUDY    44  41  89 NW5       29.67S
BAY BRIDGE AP*   N/A    N/A N/A N/A N8        29.69R
CAMBRIDGE*     CLOUDY    48  45  87 CALM      29.67S
EASTON*        MOSUNNY   50  43  76 N7        29.71

$$

MDZ017>025-261400-
SOUTHERN MARYLAND

CITY           SKY/WX    TMP DP  RH WIND       PRES   REMARKS
PATUXENT RIVER CLOUDY    48  44  86 N8        29.68S
ST INIGOES     CLOUDY    48  43  82 N3        29.67S
LEONARDTOWN*   CLOUDY    45  41  87 N3        29.69F

$$

MDZ003>005-261400-
NORTH CENTRAL MARYLAND

CITY           SKY/WX    TMP DP  RH WIND       PRES   REMARKS
FREDERICK*     SUNNY     50  30  46 N9        29.74
HAGERSTOWN APT SUNNY     47  30  51 N12       29.73R
WESTMINSTER*   SUNNY     46  30  53 N8        29.71R

$$

MDZ501>502-261400-
WESTERN MARYLAND

CITY           SKY/WX    TMP DP  RH WIND       PRES   REMARKS
OAKLAND*       CLOUDY    36  36 100 E8        29.69R
CUMBERLAND*    MOSUNNY   45  37  76 CALM      29.78R

$$

VAZ025>031-261400-
SHENANDOAH VALLEY

CITY           SKY/WX    TMP DP  RH WIND       PRES   REMARKS
WINCHESTER*    CLOUDY    48  36  61 N5        29.73R
FRONT ROYAL*   CLOUDY    43  39  87 CALM      29.73R
LURAY*         CLOUDY    45  43  93 NE7       29.72S
NEW MARKET*    CLOUDY    42  39  88 NE5       29.72S
STAUNTON*      CLOUDY    41  39  91 N7        29.73R
WAYNESBORO*    CLOUDY    39  38  99 N5        29.71R

$$

WVZ021-048>050-054>055-261400-
EASTERN WEST VIRGINIA PANHANDLE

CITY           SKY/WX    TMP DP  RH WIND       PRES   REMARKS
MARTINSBURG    MOSUNNY   48  34  58 N7        29.73R
PETERSBURG*    CLOUDY    43  37  78 CALM      29.76R

$$

VAZ036>039-050-261400-
CENTRAL FOOTHILLS

CITY           SKY/WX    TMP DP  RH WIND       PRES   REMARKS
CHARLOTTESVILL CLOUDY    42  40  92 CALM      29.71R
CULPEPER*      PTSUNNY   46  43  87 N6        29.72S
ORANGE*        CLOUDY    43  41  93 N3        29.73R
GORDONSVILLE*  CLOUDY    42  39  89 NE6       29.71S
WARRENTON*     CLOUDY    47  43  86 N3        29.72R

$$

VAZ055>057-261400-
NORTH AND CENTRAL PIEDMONT

CITY           SKY/WX    TMP DP  RH WIND       PRES   REMARKS
FREDERICKSBRG* CLOUDY    45  45  98 NW5       29.72R
STAFFORD*      CLOUDY    45  32  60 NW5       29.76R

$$

NCZ024-NYZ072-PAZ021-071-VAZ022-071-261400-
OTHER REGIONAL OBSERVATIONS

CITY           SKY/WX    TMP DP  RH WIND       PRES   REMARKS
NEW YORK CITY  MOSUNNY   52  28  39 NE7       29.73S
PHILADELPHIA   PTSUNNY   52  31  44 NE14G20   29.70R
PITTSBURGH     MOSUNNY   46  27  47 NE9       29.76R
ROANOKE        LGT RAIN  44  41  89 NE6       29.72R
RICHMOND       CLOUDY    46  42  86 N7        29.70R
RALEIGH        DRIZZLE   47  45  93 NE8       29.68R FOG

$$

ANZ530>537-261400-
MARINE OBSERVATIONS

STATION/POSITION TIME  TEMP    WIND        PRES
                       AIR SEA DIR/SP/G
                 (UTC) (F)     (DEG/KT/KT) (MB)
THOMAS PT LIGHT  1300   46 51  350/  9/ 10 1006.1R
BALT KEY BRIDGE  1200   48     360/  6/  7 1005.0S
COVE POINT       1200   45     360/  7/  9 1005.5S
LEWISETTA        1200   47 55              1004.6R
SOLOMONS ISLAND  1200      54                N/A
PINEY POINT      1200           40/  5/  7   N/A

$$




USA.gov is the U.S. government's official web portal to all federal, state and local government web resources and services.